FW0523 Weather Reports


Display with metric or nautical units.
time (UTC)temp
F
wind
direction
speed
MPH
gust
MPH
rain 1hr
in
rain 24hr
in
rain mn
in
humidity
%
barometer
mb
20260508064803 48 360 0.0 9.0 0.00 0.00 0.00 55 1022.0
20260508063803 48 315 0.0 3.0 0.00 0.00 0.00 54 1022.0
20260508061704 48 100 0.0 9.0 0.00 0.00 0.07 55 1021.9
20260508060702 48 360 0.0 0.0 0.00 0.00 0.07 56 1022.0
20260508055703 48 360 0.0 0.0 0.00 0.00 0.07 56 1022.0
20260508054704 48 178 0.0 0.0 0.00 0.00 0.07 55 1022.1
20260508053704 48 178 0.0 2.0 0.00 0.00 0.07 55 1022.0
20260508052703 48 11 0.0 3.0 0.00 0.00 0.07 55 1022.0
20260508051703 48 360 2.0 2.0 0.00 0.00 0.07 54 1022.0
20260508050704 49 148 0.0 2.0 0.00 0.00 0.07 54 1022.0
20260508045705 49 160 1.0 9.0 0.00 0.00 0.07 54 1022.0
20260508044703 50 102 0.0 3.0 0.00 0.00 0.07 54 1021.9
20260508043704 50 199 0.0 2.0 0.00 0.00 0.07 53 1021.9
20260508042703 51 236 0.0 10.0 0.00 0.00 0.07 51 1021.9
20260508041703 51 145 0.0 0.0 0.00 0.00 0.07 51 1022.0
20260508040704 51 145 0.0 1.0 0.00 0.00 0.07 50 1022.0
20260508035705 52 145 2.0 0.0 0.00 0.00 0.07 50 1022.0
20260508033603 52 137 0.0 3.0 0.00 0.00 0.07 49 1022.0
20260508031503 53 360 0.0 5.0 0.00 0.00 0.07 48 1021.6
20260508030504 53 360 0.0 9.0 0.00 0.00 0.07 48 1021.6
20260508025502 53 360 0.0 0.0 0.00 0.00 0.07 47 1021.5
20260508024503 53 360 3.0 10.0 0.00 0.00 0.07 45 1021.3
20260508023503 53 110 0.0 0.0 0.00 0.00 0.07 46 1021.3
20260508022502 54 360 1.0 6.0 0.00 0.00 0.07 45 1021.3
20260508021503 54 121 2.0 10.0 0.00 0.00 0.07 44 1021.1
20260508020503 54 360 1.0 9.0 0.00 0.00 0.07 43 1021.1
20260508015504 55 360 1.0 10.0 0.00 0.00 0.07 42 1020.9
20260508013404 56 360 1.0 9.0 0.00 0.00 0.07 41 1020.7
20260508012403 56 160 3.0 8.0 0.00 0.00 0.07 39 1020.7
20260508010303 58 184 3.0 10.0 0.00 0.00 0.07 36 1020.4
20260508005306 60 360 3.0 10.0 0.00 0.00 0.07 34 1020.4
20260508004302 61 272 2.0 9.0 0.00 0.00 0.07 31 1020.4
20260508003303 62 329 2.0 9.0 0.00 0.00 0.07 28 1020.5
20260508002306 63 292 1.0 4.0 0.00 0.00 0.07 26 1020.7
20260508000205 63 359 0.0 1.0 0.00 0.00 0.07 24 1020.7
20260507235202 63 315 2.0 2.0 0.00 0.00 0.07 24 1020.8
20260507234203 62 318 1.0 6.0 0.00 0.00 0.07 23 1020.7
20260507233204 62 325 1.0 6.0 0.00 0.00 0.07 25 1020.7
20260507232202 61 16 2.0 8.0 0.00 0.00 0.07 25 1020.8
20260507231203 62 0 0.0 6.0 0.00 0.00 0.07 25 1020.5
20260507230203 63 330 1.0 9.0 0.00 0.00 0.07 24 1020.7
20260507225204 62 4 3.0 9.0 0.00 0.00 0.07 23 1020.7
20260507223102 60 360 1.0 7.0 0.00 0.00 0.07 26 1020.8
20260507222103 61 31 1.0 1.0 0.00 0.00 0.07 25 1020.8
20260507221103 60 320 1.0 6.0 0.00 0.00 0.07 24 1020.9
20260507215103 62 360 5.0 9.0 0.00 0.00 0.07 22 1021.2
20260507214103 62 360 4.0 10.0 0.00 0.00 0.07 22 1021.3
20260507213104 62 31 1.0 13.0 0.00 0.00 0.07 22 1021.5
20260507212102 62 346 5.0 6.0 0.00 0.00 0.07 20 1021.6
20260507211103 62 68 4.0 8.0 0.00 0.00 0.07 22 1021.7
20260507210104 62 294 5.0 10.0 0.00 0.00 0.07 20 1021.9
20260507205104 63 1 2.0 8.0 0.00 0.00 0.07 22 1021.9
20260507204103 62 8 3.0 6.0 0.00 0.00 0.07 20 1022.1
20260507203104 62 336 0.0 6.0 0.00 0.00 0.07 23 1022.1
20260507202104 61 353 6.0 9.0 0.00 0.00 0.07 21 1022.4
20260507201103 61 349 0.0 9.0 0.00 0.00 0.07 21 1022.4
20260507200103 60 65 8.0 8.0 0.00 0.00 0.07 19 1022.5
20260507195104 60 30 2.0 9.0 0.00 0.00 0.07 19 1022.4
20260507194105 60 7 3.0 12.0 0.00 0.00 0.07 21 1022.7
20260507193103 60 65 2.0 8.0 0.00 0.00 0.07 20 1022.8
20260507191004 59 42 2.0 5.0 0.00 0.00 0.07 20 1023.1
20260507184904 59 40 2.0 6.0 0.00 0.00 0.07 21 1023.2
20260507183902 59 8 0.0 5.0 0.00 0.00 0.07 25 1023.2
20260507182903 58 78 1.0 3.0 0.00 0.00 0.07 26 1023.3
20260507181904 58 350 0.0 3.0 0.00 0.00 0.07 23 1023.5
20260507180902 58 268 0.0 2.0 0.00 0.00 0.07 27 1023.6
20260507175903 57 196 1.0 9.0 0.00 0.00 0.07 29 1023.7
20260507174903 57 360 0.0 0.0 0.00 0.00 0.07 27 1023.9
20260507173906 56 360 0.0 0.0 0.00 0.00 0.07 27 1024.0
20260507171802 54 306 0.0 7.0 0.00 0.00 0.07 30 1024.3
20260507170803 53 339 0.0 4.0 0.00 0.00 0.07 29 1024.5
20260507165803 52 353 1.0 3.0 0.00 0.00 0.07 29 1024.7
20260507164804 52 360 0.0 3.0 0.00 0.00 0.07 29 1024.8
20260507163803 51 18 0.0 3.0 0.00 0.00 0.07 29 1024.8
20260507150602 41 75 0.0 0.0 0.00 0.00 0.06 55 1025.6
20260507145603 41 51 0.0 5.0 0.00 0.00 0.06 57 1025.5
20260507144604 39 208 0.0 5.0 0.00 0.00 0.06 59 1025.6
20260507143602 37 213 2.0 4.0 0.00 0.00 0.06 63 1025.7
20260507142603 35 106 0.0 5.0 0.00 0.00 0.05 66 1025.9
20260507141603 34 232 2.0 2.0 0.00 0.00 0.05 66 1025.9
20260507140604 32 202 3.0 6.0 0.00 0.00 0.05 67 1025.9
20260507135603 30 192 1.0 5.0 0.00 0.00 0.02 67 1025.9
20260507134603 30 154 2.0 1.0 0.00 0.00 0.02 68 1026.0
20260507133604 30 151 2.0 9.0 0.00 0.00 0.02 68 1026.0
20260507132602 30 244 0.0 4.0 0.00 0.00 0.02 68 1026.0
20260507131603 30 100 1.0 9.0 0.00 0.00 0.02 68 1025.9
20260507130604 30 360 1.0 9.0 0.00 0.00 0.02 69 1025.9
20260507123403 30 143 2.0 6.0 0.00 0.00 0.02 69 1025.6
20260507120203 30 360 2.0 10.0 0.00 0.00 0.02 68 1025.3
20260507115204 30 333 1.0 8.0 0.00 0.00 0.02 66 1025.3
20260507114202 30 171 4.0 10.0 0.00 0.00 0.02 69 1025.2
20260507113203 30 192 1.0 9.0 0.00 0.00 0.01 69 1025.3
20260507112203 30 223 1.0 9.0 0.00 0.00 0.01 69 1025.3
20260507111204 30 212 4.0 10.0 0.00 0.00 0.01 69 1025.5
20260507110203 30 360 1.0 10.0 0.00 0.00 0.01 70 1025.5
20260507105203 30 151 2.0 10.0 0.00 0.00 0.01 70 1025.6
20260507104204 30 360 2.0 10.0 0.00 0.00 0.01 69 1025.6
20260507103202 30 192 3.0 9.0 0.00 0.00 0.01 70 1025.7
20260507102203 30 360 3.0 10.0 0.00 0.00 0.01 71 1026.0
20260507101203 31 240 0.0 10.0 0.00 0.00 0.01 71 1026.0
20260507100204 31 175 3.0 9.0 0.00 0.00 0.01 71 1026.0
20260507095202 31 154 1.0 8.0 0.00 0.00 0.01 70 1025.7
20260507094203 31 169 3.0 7.0 0.00 0.00 0.01 71 1025.7
20260507093204 31 219 2.0 10.0 0.00 0.00 0.01 71 1025.7
20260507092202 31 360 2.0 10.0 0.00 0.00 0.00 71 1025.6
20260507085103 32 270 2.0 10.0 0.00 0.00 0.00 71 1026.0
20260507084103 32 360 2.0 9.0 0.00 0.00 0.00 72 1026.0
20260507083104 32 151 4.0 7.0 0.00 0.00 0.00 72 1026.1
20260507082102 32 236 2.0 7.0 0.00 0.00 0.00 72 1026.3
20260507081103 32 349 3.0 4.0 0.00 0.00 0.00 75 1026.3
20260507080104 32 195 1.0 4.0 0.00 0.00 0.00 74 1026.3
20260507075102 32 360 2.0 10.0 0.00 0.00 0.00 74 1026.3
20260507074103 32 167 0.0 10.0 0.00 0.00 0.00 75 1026.3
20260507072003 32 56 2.0 9.0 0.00 0.00 0.00 77 1026.1